Racecast

City/County Championships - Winchester Battlefield

Third Battle of Winchester Battlefield · 5000m · Boys · Varsity · 2021-09-29 · VA

Course difficulty: -0.007

Race-day weather: 60°F · wind 16 mph · humidity 65%

View full meet →

Team scores

Place Team Points 12345 67
1 Millbrook (VA) 15 1 2 3 4 5 6 10
2 Sherando (VA) 55 8 9 11 12 15 17 20
3 John Handley (VA) 68 7 13 14 16 18 19 26
4 James Wood (VA) 115 21 22 23 24 25 27 28

As scored by the meet.

Results

Place Athlete Grade School Time Rating Points
1 Nicholas Hayden 11 Millbrook (NC) 1 16:32.8 SR 125.6 1
2 Kai Johnson 11 Millbrook (NC) 2 16:57.9 PR 122.5 2
3 Carter Johnson 12 Millbrook (NC) 3 16:58.5 SR 122.4 3
4 Carter Luden 10 Millbrook (NC) 4 17:28.5 PR 118.9 4
5 Austin Conley 11 Millbrook (NC) 5 18:02.4 PR 115.2 5
6 Matthew Topham 12 Millbrook (NC) 6 18:15.7 PR 113.8 6
7 Jack Justice 9 John Handley (VA) 1 18:27.3 PR 112.6 7
8 Dylan McGraw 10 Sherando (VA) 1 18:29.5 SR 112.4 8
9 Justin Dante 12 Sherando (VA) 2 18:30.2 SR 112.3 9
10 Colin Stephanites 11 Millbrook (NC) 7 18:32.7 PR 112.1 10
11 Camden Palmer 12 Sherando (VA) 3 18:33.9 SR 111.9 11
12 Caden Trieber 10 Millbrook (NC) 8 18:36.8 PR 111.7
13 Trevor Lloyd 11 Millbrook (NC) 9 18:41.1 111.2
14 Connor Sanders 10 Sherando (VA) 4 18:42.6 SR 111.1 12
15 Edward Browning 9 John Handley (VA) 2 18:49.2 PR 110.4 13
16 Brendan Love 12 John Handley (VA) 3 18:55.2 PR 109.8 14
17 Ryan Toomey 9 Sherando (VA) 5 18:55.6 PR 109.8 15
18 Elliott Redcay 10 John Handley (VA) 4 19:00 PR 109.4 16
19 Jed Bell 9 Sherando (VA) 6 19:22.4 PR 107.3 17
20 Josh Horton 11 John Handley (VA) 5 19:43.5 PR 105.4 18
21 Carter Bessette 10 John Handley (VA) 6 19:45.9 105.1 19
22 Devin Hardy 11 Sherando (VA) 7 20:14.8 PR 102.6 20
23 Colton Staneart 10 James Wood (VA) 1 20:25.7 PR 101.7 21
24 Cadence Hartzell 12 Sherando (VA) 8 20:49.4 PR 99.8
25 John Shields 10 Sherando (VA) 9 20:58.3 PR 99.1
26 Ethan Pratt-Perez 10 James Wood (VA) 2 21:00.3 98.9 22
27 Jacob Oliver 11 James Wood (VA) 3 21:00.4 98.9 23
28 Liam McDonald 12 James Wood (VA) 4 21:00.4 98.9 24
29 Nathaniel Woshner 12 James Wood (VA) 5 21:00.5 98.9 25
30 Eli Keaton 9 John Handley (VA) 7 21:03.7 98.7 26
31 Owen Hahn 9 James Wood (VA) 6 21:13.3 PR 97.9 27
32 Eli Clark 9 James Wood (VA) 7 21:13.5 97.9 28
33 Danilo Rincon 12 James Wood (VA) 8 21:13.5 97.9
34 Jack Hu 12 John Handley (VA) 8 21:30.7 96.6
35 Will Simko 10 James Wood (VA) 9 21:51.1 PR 95.1
36 Nolan Cornwell 12 James Wood (VA) 10 22:10.9 93.7
37 Afnan Akhand 11 John Handley (VA) 9 22:22.1 92.9
38 Tyler DeWarf 10 James Wood (VA) 11 22:27.6 92.5
39 Skyler Dunn 12 John Handley (VA) 10 22:29.4 92.4
40 Lawrence Gittrich 9 James Wood (VA) 12 22:39.8 PR 91.7
41 Toby Fox 9 Sherando (VA) 10 22:52.8 90.8
42 Owen Uhry 10 Sherando (VA) 11 22:53 PR 90.8
43 Matthew Doran 9 John Handley (VA) 11 23:51.7 87.1
44 Sean Campbell 9 John Handley (VA) 12 24:41.2 84.2
45 Cole McDonald 9 James Wood (VA) 13 24:51.4 PR 83.6
46 Chase Lockley 9 James Wood (VA) 14 25:53.8 80.2
47 Patrick Beatty 9 James Wood (VA) 15 25:57.4 80.1
48 William Shable 9 Sherando (VA) 12 25:59.5 PR 80.0
Something wrong on this page? Report it →